GW1109 Weather Reports


Display with metric or nautical units.
time (UTC)temp
F
wind
direction
speed
MPH
gust
MPH
rain 1hr
in
rain 24hr
in
rain mn
in
humidity
%
barometer
mb
20260831213059 72 134 3.0 11.0 0.00 0.01 0.00 54 1018.2
20260831211558 73 147 4.0 12.0 0.00 0.01 0.00 51 1018.3
20260831210051 73 202 4.0 10.0 0.00 0.01 0.00 50 1018.3
20260831204559 74 200 4.0 11.0 0.00 0.01 0.00 49 1018.4
20260831203046 75 173 3.0 11.0 0.00 0.01 0.00 48 1018.4
20260831201555 75 192 3.0 8.0 0.00 0.01 0.00 47 1018.3
20260831200055 75 135 3.0 11.0 0.00 0.01 0.00 47 1018.2
20260831194623 74 211 5.0 10.0 0.00 0.01 0.00 49 1018.5
20260831193058 75 181 3.0 14.0 0.00 0.01 0.00 47 1018.6
20260831191554 77 169 2.0 6.0 0.00 0.01 0.00 32 1018.8
20260831190057 76 222 0.0 11.0 0.00 0.01 0.00 37 1018.9
20260831184601 76 147 2.0 10.0 0.00 0.01 0.00 35 1019.1
20260831183057 76 221 3.0 8.0 0.00 0.01 0.00 33 1018.9
20260831181600 75 172 3.0 8.0 0.00 0.01 0.00 37 1018.9
20260831180101 74 167 5.0 9.0 0.00 0.01 0.00 42 1019.2
20260831174553 74 240 3.0 8.0 0.00 0.01 0.00 35 1019.3
20260831173100 74 227 3.0 9.0 0.00 0.01 0.00 40 1019.5
20260831171559 74 131 2.0 9.0 0.00 0.01 0.00 41 1019.6
20260831170052 73 238 3.0 9.0 0.00 0.01 0.00 41 1019.7
20260831164610 73 300 3.0 8.0 0.00 0.01 0.00 43 1019.9
20260831163104 73 197 2.0 5.0 0.00 0.01 0.00 41 1019.9
20260831161559 72 144 1.0 9.0 0.00 0.01 0.00 45 1020.1
20260831160049 72 61 3.0 6.0 0.00 0.01 0.00 46 1020.1
20260831154618 72 204 2.0 6.0 0.00 0.01 0.00 47 1020.2
20260831153059 70 355 0.0 7.0 0.00 0.01 0.00 48 1020.4
20260831151552 70 76 2.0 5.0 0.00 0.01 0.00 50 1020.6
20260831150047 69 296 4.0 7.0 0.00 0.01 0.00 54 1020.6
20260831144607 68 343 3.0 9.0 0.00 0.01 0.00 55 1020.6
20260831143101 67 345 3.0 8.0 0.00 0.01 0.00 55 1020.7
20260831141558 67 360 4.0 8.0 0.00 0.01 0.00 55 1020.9
20260831140058 67 315 2.0 6.0 0.00 0.01 0.00 61 1020.8
20260831134551 66 290 3.0 8.0 0.00 0.01 0.00 62 1020.8
20260831133059 66 331 2.0 5.0 0.00 0.01 0.00 63 1020.8
20260831131550 65 294 2.0 7.0 0.00 0.01 0.00 65 1020.7
20260831130105 64 330 2.0 6.0 0.00 0.01 0.00 67 1020.5
20260831124547 64 323 2.0 4.0 0.00 0.01 0.00 70 1020.6
20260831123101 63 302 2.0 5.0 0.00 0.01 0.00 72 1020.6
20260831121553 62 319 2.0 5.0 0.00 0.01 0.00 74 1020.4
20260831120055 61 302 2.0 5.0 0.00 0.01 0.00 78 1020.3
20260831114605 60 336 1.0 4.0 0.00 0.01 0.00 83 1020.2
20260831113100 58 0 0.0 2.0 0.00 0.01 0.00 87 1020.1
20260831111553 57 0 0.0 2.0 0.00 0.01 0.00 90 1020.1
20260831110051 56 0 0.0 2.0 0.00 0.01 0.00 94 1020.1
20260831104559 54 0 0.0 0.0 0.00 0.01 0.00 93 1020.1
20260831103047 54 0 0.0 1.0 0.00 0.01 0.00 91 1019.9
20260831101555 54 0 0.0 1.0 0.00 0.01 0.00 91 1019.6
20260831100108 55 0 0.0 1.0 0.00 0.01 0.00 90 1019.6
20260831094600 55 0 0.0 0.0 0.00 0.01 0.00 89 1019.4
20260831093058 55 0 0.0 0.0 0.00 0.01 0.00 87 1019.3
20260831091601 56 0 0.0 4.0 0.00 0.01 0.00 85 1019.2
20260831090053 56 0 0.0 1.0 0.00 0.01 0.00 86 1019.1
20260831084547 56 0 0.0 1.0 0.00 0.01 0.00 86 1018.9
20260831083055 57 0 0.0 1.0 0.00 0.01 0.00 84 1018.7
20260831081554 58 0 0.0 1.0 0.00 0.01 0.00 82 1018.5
20260831080049 58 304 0.0 4.0 0.00 0.01 0.00 81 1018.4
20260831074547 59 0 1.0 6.0 0.00 0.01 0.00 82 1018.4
20260831073103 58 30 3.0 8.0 0.00 0.01 0.00 87 1018.3
20260831071552 58 0 0.0 4.0 0.00 0.01 0.00 90 1018.3
20260831070049 59 0 1.0 4.0 0.00 0.01 0.00 90 1018.3
20260831064558 59 0 0.0 4.0 0.00 0.01 0.00 90 1018.1
20260831063052 59 5 0.0 4.0 0.00 0.01 0.00 91 1018.0
20260831061548 59 0 0.0 3.0 0.00 0.01 0.00 90 1018.0
20260831060111 59 0 0.0 4.0 0.00 0.01 0.00 88 1017.9
20260831054558 59 291 0.0 1.0 0.00 0.01 0.00 88 1017.8
20260831053055 59 0 0.0 2.0 0.00 0.01 0.00 86 1017.7
20260831051557 59 0 0.0 2.0 0.00 0.01 0.00 84 1017.7
20260831050055 60 0 0.0 2.0 0.00 0.01 0.00 82 1017.5
20260831044556 60 328 0.0 2.0 0.00 0.01 0.00 82 1017.5
20260831043048 61 0 0.0 3.0 0.00 0.01 0.00 83 1017.6
20260831041643 61 0 0.0 3.0 0.00 0.01 0.00 84 1017.6
20260831040051 62 0 1.0 4.0 0.00 0.01 0.00 83 1017.4
20260831034548 63 331 0.0 3.0 0.00 0.01 0.01 83 1017.7
20260831033100 64 0 0.0 4.0 0.00 0.01 0.01 80 1017.5
20260831031552 66 317 2.0 9.0 0.00 0.01 0.01 82 1017.6
20260831030054 66 329 6.0 13.0 0.00 0.01 0.01 86 1017.7
20260831024603 67 340 4.0 10.0 0.01 0.01 0.01 90 1017.5
20260831023057 67 304 3.0 5.0 0.01 0.01 0.01 88 1017.1
20260831021554 67 298 3.0 7.0 0.01 0.01 0.01 86 1017.2
20260831020049 67 256 2.0 8.0 0.01 0.01 0.01 83 1016.7
20260831014547 67 294 4.0 9.0 0.00 0.00 0.00 80 1017.0
20260831013107 68 285 4.0 8.0 0.00 0.00 0.00 76 1016.7
20260831011556 68 306 3.0 6.0 0.00 0.00 0.00 73 1016.5
20260831010116 69 284 2.0 5.0 0.00 0.00 0.00 72 1016.2
20260831004549 68 306 2.0 4.0 0.00 0.00 0.00 73 1015.9
20260831003056 68 0 0.0 3.0 0.00 0.00 0.00 73 1015.5
20260831001552 69 339 2.0 5.0 0.00 0.00 0.00 72 1015.7
20260831000110 69 0 0.0 2.0 0.00 0.00 0.00 69 1015.2
20260830234559 69 305 0.0 3.0 0.00 0.00 0.00 71 1015.1
20260830233051 69 244 0.0 3.0 0.00 0.00 0.00 69 1015.0
20260830231557 70 0 0.0 2.0 0.00 0.00 0.00 68 1015.2
20260830230054 70 0 0.0 0.0 0.00 0.00 0.00 69 1015.2
20260830224555 72 0 0.0 0.0 0.00 0.00 0.00 67 1015.2
20260830223128 72 0 0.0 1.0 0.00 0.00 0.00 61 1015.4
20260830221553 73 0 0.0 1.0 0.00 0.00 0.00 61 1015.6
20260830220107 73 244 0.0 1.0 0.00 0.00 0.00 58 1015.5
20260830214603 73 244 2.0 6.0 0.00 0.00 0.00 57 1015.8